GCOM-W1 (SHIZUKU) (38337 NORAD) Tracking and Keplerian Element Data

This shows tracking and keplerian element data for the satellite.

Feedback or suggestion? Click here.




ElementValue
Catalog38337
NameGCOM-W1 (SHIZUKU)
Epoch Orbit32849
Epoch Day202.41864521
Epoch Year2018
RAAN142.0213
Inclination98.2037
Eccentricity6.95E-05
Argument of Perigee43.8242
Mean Anonmoly66.1126
Mean Motion14.57106023
Decay Rate2E-07
L11 38337U 12025A 18202.41864521 .00000020 00000-0 14442-4 0 9999
L22 38337 98.2037 142.0213 0000695 43.8242 66.1126 14.57106023328498

Live tracking and technical data element details for GCOM-W1 (SHIZUKU) (NORAD 38337). GCOM-W1 (SHIZUKU) can be tracked NOW for your location showing map with azimuth and elevation plus other details from your city location.

Track the satellite on the map from your city or location and see movement details for azimuth, elevation, latitude, longitude, range, height, and movement on the map or in text.







IsCatalogInMostPopularTable: catalog: 38337, numindb: 44
Update: records affected: 1



GetName: 38337 GCOM-W1 (SHIZUKU)

Hit Count: updated at: Mon, 23 Jul 2018 07:49:16 GMT